Regional Weather Roundup
Issued by NWS Little Rock, AR

Home | Current Version | Previous Version | Graphics & Text | Print | Product List | Glossary On
Versions: 1 2 3 4 5 6 7 8 9 10 11 12 13 14 15 16 17 18 19 20 21 22 23 24 25 26 27 28 29 30 31 32 33
000
ASUS44 KLZK 040105
RWRLZK

WEATHER ROUNDUP FOR ARKANSAS
NATIONAL WEATHER SERVICE LITTLE ROCK AR
700 PM CST SAT DEC 03 2016

NOTE: "FAIR" INDICATES FEW OR NO CLOUDS BELOW 12,000 FEET WITH NO
SIGNIFICANT WEATHER AND/OR OBSTRUCTIONS TO VISIBILITY.

ARZ001-003-010-029-040200-
NORTHWEST ARKANSAS

CITY           SKY/WX    TMP DP  RH WIND       PRES   REMARKS
FAYETTEVILLE   CLOUDY    41  41 100 E5        30.07F
FORT SMITH     CLOUDY    45  42  89 E13       30.09F
HARRISON       LGT RAIN  38  38 100 E13       30.13F
BENTONVILLE    CLOUDY    41  34  75 E12G18    30.09F
ROGERS         LGT RAIN  40  38  93 E10       30.08F
SILOAM SPGS    CLOUDY    41  37  87 E6        30.08S
HIGHFILL       CLOUDY    41  39  93 E9        30.08F
SPRINGDALE     LGT RAIN  41  39  93 MISG      30.09F FOG
$$

ARZ004-005-016-040200-
NORTH CENTRAL ARKANSAS

CITY           SKY/WX    TMP DP  RH WIND       PRES   REMARKS
BATESVILLE     CLOUDY    41  37  87 NE9       30.21F
FLIPPIN        CLOUDY    39  34  81 E8        30.15F
MTN HOME       LGT RAIN  39  37  92 SE9       30.17F
$$

ARZ040-041-040200-
WEST CENTRAL ARKANSAS

CITY           SKY/WX    TMP DP  RH WIND       PRES   REMARKS
MENA           CLOUDY    46  45  93 E13G18    30.04S
MOUNT IDA      LGT RAIN  46  44  93 E9        30.04F
$$

ARZ009-017-025-026-028-040200-
NORTHEAST ARKANSAS

CITY           SKY/WX    TMP DP  RH WIND       PRES   REMARKS
CORNING        LGT RAIN  41  39  93 NE10      30.26F
JONESBORO      LGT RAIN  42  39  89 NE10      30.24S FOG
NEWPORT        LGT RAIN  42  40  92 NE15      30.21F FOG
WALNUT RIDGE   MOCLDY    43  37  81 NE12      30.25F
BLYTHEVILLE    LGT RAIN  43  39  86 NE8       30.27S
$$

ARZ022-023-033-042-044-040200-
CENTRAL ARKANSAS

CITY           SKY/WX    TMP DP  RH WIND       PRES   REMARKS
LITTLE ROCK    LGT RAIN  43  43 100 NE10      30.15F
N LITTLE ROCK    N/A     42  41  96 E10       30.17R
JACKSONVILLE   LGT RAIN  43  43  99 NE14      30.14F
SEARCY         LGT RAIN  42  42 100 NE13      30.19F
HOT SPRINGS    LGT RAIN  46  45  96 E9        30.12R
RUSSELLVILLE   LGT RAIN  43  41  93 E8        30.14S
$$

ARZ036-040200-
EAST ARKANSAS

CITY           SKY/WX    TMP DP  RH WIND       PRES   REMARKS
WEST MEMPHIS   LGT RAIN  43  42  97 E12       30.19F
$$

ARZ050-053-066-070-073-040200-
SOUTHWEST ARKANSAS

CITY           SKY/WX    TMP DP  RH WIND       PRES   REMARKS
ARKADELPHIA    RAIN      46  45  96 E7        30.12R FOG
CAMDEN         HVY RAIN  46  43  87 E9        30.09R
TEXARKANA      LGT RAIN  46  46 100 E10G20    30.02F
EL DORADO      LGT RAIN  46  45  96 NE10      30.05R FOG
DE QUEEN       CLOUDY    47  46  97 E14G21    30.03R
$$

ARZ056-057-069-040200-
SOUTHEAST ARKANSAS

CITY           SKY/WX    TMP DP  RH WIND       PRES   REMARKS
PINE BLUFF     LGT RAIN  46  44  93 E12       30.12F
STUTTGART      CLOUDY    45  39  81 NE16      30.14F
MONTICELLO     LGT RAIN  46  44  93 E14       30.08F FOG

$$






USA.gov is the U.S. government's official web portal to all federal, state and local government web resources and services.